Roanoke, VA

11:21 PM EST on February 24, 2018 (GMT -0500)
Roanoke Regional-Woodrum

Weather History for KROA - April, 2013

Change the Weather History Date:

Thursday, April 18, 2013

  Actual Average Record
Temperature  
Mean Temperature 69 °F 57 °F  
Max Temperature 77 °F 69 °F 91 °F (1976)
Min Temperature 60 °F 46 °F 27 °F (1951)
Degree Days  
Heating Degree Days 0 8  
Month to date heating degree days 132 191  
Since 1 July heating degree days 3773 3948  
Cooling Degree Days 4 1  
Month to date cooling degree days 43 10  
Year to date cooling degree days 43 15  
Growing Degree Days 18 (Base 50)    
Moisture  
Dew Point 57 °F    
Average Humidity 68    
Maximum Humidity 93    
Minimum Humidity 43    
Precipitation  
Precipitation T in 0.11 in 0.97 in (1924)
Month to date precipitation 2.17 2.01  
Year to date precipitation 14.86 11.28  
Snow  
Snow 0.00 in - - ()
Month to date snowfall 1.0  
Since 1 July snowfall 18.3  
Snow Depth 0.00 in    
Sea Level Pressure  
Sea Level Pressure 30.09 in    
Wind  
Wind Speed 9 mph (SSE)    
Max Wind Speed 22 mph    
Max Gust Speed 28 mph    
Visibility 9 miles    
Events      
T = Trace of Precipitation, MM = Missing Value Source: NWS Daily Summary

Daily Weather History Graph

Daily Weather History Graph

Search for Another Location

Airport or City:

Trip Planner

Search our weather history database for the weather conditions in past years. The results will help you decide how hot, cold, wet, or windy it might be!

Date:

Astronomy

Apr. 18, 2013 Rise Set
Actual Time 6:40 AM EDT 7:58 PM EDT
Civil Twilight 6:13 AM EDT 8:25 PM EDT
Nautical Twilight 5:41 AM EDT 8:57 PM EDT
Astronomical Twilight 5:07 AM EDT 9:31 PM EDT
Moon 12:52 PM EDT (4/18) 2:10 AM EDT (4/18)
Length of Visible Light 14h 11m
Length of Day
13h 17m
First Quarter, 51% of the Moon is Illuminated
Apr 18
First Quarter
Apr 25
Full
May 2
Last Quarter
May 9
New
May 18
First Quarter

Hourly Weather History & Observations

Time (EDT) Temp. Dew Point Humidity Pressure Visibility Wind Dir Wind Speed Gust Speed Precip Events Conditions
12:54 AM 63.0 °F 55.9 °F 78% 30.13 in 10.0 mi Calm Calm - N/A   Partly Cloudy
1:54 AM 62.1 °F 55.9 °F 80% 30.13 in 10.0 mi North 3.5 mph - N/A   Partly Cloudy
2:54 AM 62.1 °F 55.9 °F 80% 30.12 in 10.0 mi SSE 4.6 mph - N/A   Partly Cloudy
3:54 AM 63.0 °F 57.0 °F 81% 30.11 in 10.0 mi Calm Calm - N/A   Mostly Cloudy
4:54 AM 62.1 °F 57.9 °F 86% 30.12 in 10.0 mi Calm Calm - N/A   Mostly Cloudy
5:54 AM 63.0 °F 59.0 °F 87% 30.12 in 10.0 mi Calm Calm - N/A   Overcast
6:54 AM 63.0 °F 60.1 °F 90% 30.14 in 10.0 mi ESE 6.9 mph - N/A   Overcast
7:54 AM 64.9 °F 61.0 °F 87% 30.14 in 1.2 mi SE 5.8 mph - N/A   Overcast
7:59 AM 64.4 °F 60.8 °F 88% 30.17 in 10.0 mi ESE 5.8 mph - N/A   Overcast
8:54 AM 66.9 °F 61.0 °F 81% 30.16 in 10.0 mi SSE 10.4 mph - N/A   Overcast
9:27 AM 66.2 °F 60.8 °F 83% 30.18 in 10.0 mi SE 9.2 mph - N/A   Overcast
9:54 AM 66.9 °F 60.1 °F 79% 30.16 in 10.0 mi SE 12.7 mph - N/A   Mostly Cloudy
10:54 AM 70.0 °F 61.0 °F 73% 30.16 in 10.0 mi SSE 11.5 mph 16.1 mph N/A   Overcast
11:54 AM 72.0 °F 60.1 °F 66% 30.14 in 10.0 mi SE 10.4 mph - N/A   Mostly Cloudy
12:54 PM 73.9 °F 57.9 °F 57% 30.12 in 10.0 mi South 8.1 mph 18.4 mph N/A   Overcast
1:54 PM 73.9 °F 57.9 °F 57% 30.10 in 10.0 mi SSE 11.5 mph - N/A   Overcast
2:54 PM 75.9 °F 57.9 °F 54% 30.08 in 10.0 mi SSE 10.4 mph 17.3 mph N/A   Overcast
3:54 PM 75.0 °F 59.0 °F 57% 30.05 in 10.0 mi SE 13.8 mph - N/A   Mostly Cloudy
4:54 PM 75.9 °F 54.0 °F 46% 30.04 in 10.0 mi SSE 13.8 mph 25.3 mph N/A   Mostly Cloudy
5:54 PM 75.9 °F 54.0 °F 46% 30.02 in 10.0 mi SSE 13.8 mph 21.9 mph N/A   Mostly Cloudy
6:54 PM 75.0 °F 51.1 °F 43% 30.01 in 10.0 mi South 13.8 mph 19.6 mph N/A   Scattered Clouds
7:54 PM 72.0 °F 52.0 °F 49% 30.00 in 10.0 mi SSE 8.1 mph - N/A   Clear
8:54 PM 70.0 °F 52.0 °F 53% 30.00 in 10.0 mi SSE 5.8 mph - N/A   Mostly Cloudy
9:54 PM 71.1 °F 53.1 °F 53% 30.01 in 10.0 mi SSE 9.2 mph - N/A   Overcast
10:54 PM 70.0 °F 55.9 °F 61% 29.99 in 10.0 mi SSE 10.4 mph 19.6 mph N/A   Overcast
11:54 PM 69.1 °F 57.0 °F 65% 29.96 in 10.0 mi SSE 15.0 mph - 0.00 in   Overcast